Weather History for Sidney, NE

Change the Weather History Date:

Friday, December 13, 2013

  Actual Average Record
Temperature  
Mean Temperature 32 °F 28 °F  
Max Temperature 48 °F 41 °F 63 °F (1980)
Min Temperature 16 °F 16 °F -10 °F (1985)
Degree Days  
Heating Degree Days 33 37  
Month to date heating degree days 580 462  
Since 1 July heating degree days 2072 1884  
Cooling Degree Days 0 0  
Month to date cooling degree days 0 0  
Year to date cooling degree days 918 830  
Moisture  
Dew Point 18 °F    
Average Humidity 53    
Maximum Humidity 75    
Minimum Humidity 31    
Precipitation  
Precipitation 0.00 in 0.01 in 0.46 in (1984)
Month to date precipitation T 0.25  
Year to date precipitation 16.92 18.25  
Sea Level Pressure  
Sea Level Pressure 30.00 in    
Wind  
Wind Speed 14 mph (NNW)    
Max Wind Speed 29 mph    
Max Gust Speed 36 mph    
Visibility 10 miles    
Events      
T = Trace of Precipitation, MM = Missing Value Source: NWS Daily Summary

Daily Weather History Graph

Daily Weather History Graph

Search for Another Location

Airport:

Trip Planner

Search our weather history database for the weather conditions in past years. The results will help you decide how hot, cold, wet, or windy it might be!

Date:

Astronomy

Dec. 13, 2013 Rise Set
Actual Time 7:08 AM MST 4:23 PM MST
Civil Twilight 6:37 AM MST 4:54 PM MST
Nautical Twilight 6:03 AM MST 5:29 PM MST
Astronomical Twilight 5:29 AM MST 6:03 PM MST
Moon 2:09 PM MST (12/13) 3:32 AM MST (12/13)
Length of Visible Light 10h 17m
Length of Day
9h 14m
Waxing Gibbous, 88% of the Moon is Illuminated
Dec 13
Waxing Gibbous
Dec 17
Full
Dec 25
Last Quarter
Jan 1
New
Jan 7
First Quarter

Hourly Weather History & Observations

Time (MST) Temp. Windchill Dew Point Humidity Pressure Visibility Wind Dir Wind Speed Gust Speed Precip Events Conditions
12:53 AM 23.0 °F 10.1 °F 14.0 °F 68% 29.92 in 10.0 mi WNW 15.0 mph - N/A   Clear
1:53 AM 21.0 °F 7.6 °F 12.9 °F 71% 29.90 in 10.0 mi NW 15.0 mph - N/A   Clear
2:53 AM 19.9 °F 11.1 °F 12.9 °F 74% 29.88 in 10.0 mi West 6.9 mph - N/A   Clear
3:53 AM 21.0 °F 9.9 °F 12.9 °F 71% 29.89 in 10.0 mi WNW 10.4 mph - N/A   Clear
4:53 AM 21.0 °F 13.4 °F 12.0 °F 68% 29.93 in 10.0 mi West 5.8 mph - N/A   Clear
5:53 AM 19.9 °F 12.1 °F 12.0 °F 71% 29.95 in 10.0 mi West 5.8 mph - N/A   Clear
6:53 AM 21.9 °F 11.0 °F 10.9 °F 63% 29.96 in 10.0 mi WNW 10.4 mph - N/A   Clear
7:53 AM 28.0 °F 18.6 °F 16.0 °F 61% 29.94 in 10.0 mi WNW 10.4 mph - N/A   Clear
8:53 AM 37.0 °F 29.3 °F 19.0 °F 48% 29.92 in 10.0 mi NW 11.5 mph - N/A   Clear
9:53 AM 45.0 °F 36.2 °F 16.0 °F 31% 29.90 in 10.0 mi NNW 24.2 mph 29.9 mph N/A   Clear
10:53 AM 44.1 °F 34.4 °F 16.0 °F 32% 29.92 in 10.0 mi NNW 27.6 mph 33.4 mph N/A   Clear
11:53 AM 45.0 °F 36.4 °F 18.0 °F 34% 29.91 in 10.0 mi NNW 23.0 mph 29.9 mph N/A   Clear
12:53 PM 46.9 °F - 18.0 °F 32% 29.88 in 10.0 mi NNW 23.0 mph - N/A   Clear
1:53 PM 44.1 °F 36.2 °F 19.0 °F 37% 29.93 in 10.0 mi North 18.4 mph 28.8 mph N/A   Clear
2:53 PM 41.0 °F 33.1 °F 19.9 °F 43% 29.98 in 10.0 mi North 15.0 mph - N/A   Clear
3:53 PM 37.9 °F 30.9 °F 21.0 °F 51% 30.02 in 10.0 mi North 10.4 mph - N/A   Clear
4:53 PM 36.0 °F 26.7 °F 21.9 °F 57% 30.04 in 10.0 mi North 15.0 mph - N/A   Clear
5:53 PM 35.1 °F 26.9 °F 23.0 °F 61% 30.07 in 10.0 mi North 11.5 mph - N/A   Partly Cloudy
6:53 PM 33.1 °F 21.9 °F 21.9 °F 64% 30.11 in 10.0 mi North 18.4 mph - N/A   Scattered Clouds
7:53 PM 30.0 °F 20.0 °F 21.0 °F 69% 30.14 in 10.0 mi North 12.7 mph - N/A   Clear
8:53 PM 28.9 °F 19.8 °F 21.0 °F 72% 30.14 in 10.0 mi North 10.4 mph 25.3 mph N/A   Overcast
9:53 PM 28.0 °F 19.3 °F 21.0 °F 75% 30.13 in 10.0 mi North 9.2 mph - N/A   Overcast
10:13 PM 28.4 °F 19.7 °F 21.2 °F 74% 30.10 in 10.0 mi North 9.2 mph - N/A   Overcast
10:53 PM 28.0 °F 19.3 °F 21.0 °F 75% 30.16 in 10.0 mi North 9.2 mph - N/A   Overcast
11:36 PM 26.6 °F 19.1 °F 21.2 °F 80% 30.12 in 8.0 mi North 6.9 mph - N/A   Overcast
11:53 PM 25.0 °F 16.3 °F 19.9 °F 81% 30.18 in 10.0 mi NNW 8.1 mph - N/A   Mostly Cloudy